Home > Weather > Itzehoe > Past weeks

Flag for Germany Weather for the Past 2 Weeks in Itzehoe, Schleswig-Holstein, Germany

Now
50 °F

More clouds than sun.


Feels Like: 44 °F
Forecast: 41 / 52 °F
Wind: 17 mph from South

Location: Hohn

Current Time: Apr 29, 2016 at 12:18:16 PM

Latest Report: Apr 29, 2016 at 11:20 AM


Visibility: N/A

Pressure: 29.86 "Hg

Humidity: 58%

Dew Point: 36 °F

Location of ItzehoeLocation

Historic Weather in Itzehoe — Graph

°F

Itzehoe Temperature Yesterday

Maximum temperature yesterday: 48 °F (at 1:20 PM)
Minimum temperature yesterday: 36 °F (at 5:20 AM)
Average temperature yesterday: 42 °F

High & Low Weather Summary for the Past Weeks

 TemperatureHumidityPressure
High55 °F (Apr 14, 2:20 PM)100% (Apr 16, 4:20 AM)30.42 "Hg (Apr 16, 4:20 AM)
Low30 °F (Apr 23, 4:20 AM)28% (Apr 23, 12:20 PM)29.36 "Hg (Apr 26, 4:20 AM)
Average43 °F79%29.82 "Hg
* Reported Apr 14 10:20 AM — Apr 29 10:20 AM, Itzehoe, Weather by CustomWeather, © 2016

Note: Actual official high and low records may vary slightly from our data, if they occured in-between our weather recording intervals... More about our weather records

Advertising

Itzehoe Weather History for the Previous 24 Hours

Scroll right to see more
 ConditionsComfort  
Time TempWeatherWind HumidityBarometerVisibility
10:20 AM
Fri, Apr 29
46 °FCloudy.14 mph62%29.86 "HgN/A
9:20 AM45 °FMore clouds than sun.12 mph71%29.89 "HgN/A
8:20 AM41 °FBroken clouds.8 mph81%29.89 "Hg4 mi
7:20 AM37 °FFog.6 mph87%29.89 "Hg3 mi
6:20 AM34 °FFog.3 mph93%29.89 "Hg2 mi
5:20 AM34 °FFog.6 mph100%29.92 "Hg3 mi
4:20 AM36 °FPassing clouds.6 mph93%29.92 "HgN/A
3:20 AM37 °FChilly.7 mph87%29.92 "HgN/A
2:20 AM39 °FPassing clouds.5 mph81%29.92 "HgN/A
1:20 AM41 °FPassing clouds.7 mph76%29.92 "HgN/A
12:20 AM41 °FPassing clouds.6 mph76%29.92 "HgN/A
11:20 PM
Thu, Apr 28
41 °FPartly cloudy.5 mph70%29.92 "HgN/A
10:20 PM39 °FPassing clouds.5 mph75%29.92 "HgN/A
9:20 PM39 °FScattered clouds.5 mph75%29.92 "HgN/A
8:20 PM45 °FPassing clouds.7 mph66%29.92 "HgN/A
7:20 PM46 °FPassing clouds.15 mph57%29.89 "HgN/A
6:20 PM48 °FPassing clouds.20 mph54%29.89 "HgN/A
5:20 PM48 °FScattered clouds.20 mph54%29.89 "HgN/A
4:20 PM46 °FScattered clouds.21 mph62%29.86 "HgN/A
3:20 PM46 °FScattered clouds.13 mph71%29.86 "HgN/A
2:20 PM48 °FScattered clouds.22 mph62%29.83 "HgN/A
1:20 PM48 °FPartly sunny.20 mph62%29.83 "HgN/A
12:20 PM45 °FSprinkles. Partly sunny.14 mph66%29.83 "Hg5 mi
Weather by CustomWeather, © 2016

See weather overviewHow to use our weather pages